EHI
57 57 57 54 50 45 40 38 38 39 42 45 48 47 42 39 40 40 38 39 40 39 35 31 28 24 21 19 18 17 20 22 18 13 12 15 17 19 21 24 22 16 12
59 58 56 55 54 50 45 43 43 44 45 46 48 48 44 42 42 42 39 37 39 40 37 32 29 27 24 21 18 17 20 23 22 18 15 16 18 20 23 23 20 16 14
60 58 55 55 57 56 52 50 50 49 48 48 48 49 47 45 45 44 41 37 37 39 38 34 31 30 28 24 19 18 19 22 23 21 18 17 17 19 22 22 18 16 14
60 57 55 55 57 58 56 54 53 52 51 51 50 50 49 47 46 45 42 39 38 38 37 35 32 30 29 26 22 20 18 19 19 18 17 17 15 17 21 21 18 16 14
62 60 58 57 58 58 56 54 54 53 53 53 51 49 48 45 40 39 39 39 39 38 38 36 32 29 27 23 19 16 15 15 15 14 14 13 13 15 18 18 15 13 12
61 61 60 59 58 56 54 53 53 52 52 52 49 45 42 37 29 27 30 36 40 39 38 34 28 25 23 17 10 6 8 10 11 11 11 10 10 12 13 12 10 9 9
55 57 60 59 57 54 53 52 51 50 49 47 44 40 37 30 20 16 20 31 38 38 34 28 22 18 18 15 9 5 5 6 6 7 8 9 10 12 12 10 8 7 6
47 50 54 55 53 52 51 50 48 47 45 42 39 37 34 27 17 10 13 24 33 32 28 23 17 15 15 15 14 13 11 7 3 4 6 8 10 12 11 9 7 5 4
42 44 46 48 48 48 47 45 43 42 40 39 37 34 31 24 15 8 9 18 25 25 23 19 15 13 12 11 14 17 15 10 5 4 4 5 6 6 5 6 5 4 3
39 40 41 42 43 42 39 38 37 36 35 35 33 30 26 21 13 6 7 14 19 19 17 14 11 9 7 5 9 13 13 10 6 4 3 3 2 1 1 2 3 3 3
38 38 38 38 37 34 32 31 31 31 31 31 29 24 21 18 12 4 4 10 14 14 12 10 8 5 2 1 3 6 7 6 5 4 4 4 3 3 3 2 3 3 3
36 35 36 35 32 30 30 29 28 28 29 28 25 21 17 16 11 3 1 4 8 9 9 7 4 1 0 0 0 1 2 2 1 2 3 4 4 5 4 3 3 3 3
33 33 34 33 30 30 30 30 28 28 27 26 23 19 16 15 11 5 1 1 3 5 6 4 1 0 0 0 0 0 0 0 0 0 2 3 4 5 6 5 3 3 3
29 31 31 29 29 31 31 28 26 25 25 26 23 19 16 14 12 7 3 1 1 2 2 2 0 0 0 0 0 0 0 0 0 0 1 2 3 5 6 6 4 3 3
25 26 25 23 26 28 26 22 18 17 18 20 20 16 14 12 10 8 5 3 1 1 2 2 2 1 1 1 1 1 1 1 1 1 1 1 3 5 6 6 4 3 3
22 20 16 17 22 23 21 16 11 8 8 9 9 8 7 6 5 4 3 2 2 1 2 3 3 3 2 2 2 1 1 2 2 1 0 0 2 4 5 5 4 3 3
20 15 11 11 16 19 17 14 9 5 3 2 2 2 1 1 1 1 0 1 1 0 1 2 3 3 3 3 3 2 2 2 3 2 2 2 3 3 4 4 3 3 3
17 12 8 9 12 14 15 13 10 6 4 2 0 0 0 0 0 0 0 0 0 0 1 1 2 3 4 4 4 4 4 4 4 4 4 5 5 4 3 3 3 2 2
14 10 8 9 11 11 11 10 7 6 5 3 1 0 0 0 0 0 0 0 0 1 2 2 2 2 3 4 5 5 5 6 6 6 6 6 6 5 4 2 1 1 1
12 9 7 8 9 8 6 5 3 2 3 3 2 0 0 0 0 0 0 0 0 1 2 3 2 2 3 5 6 6 5 6 6 6 6 6 5 5 3 1 0 0 0
9 6 4 4 4 3 2 1 1 0 1 2 1 0 0 0 0 0 0 0 0 1 2 3 3 2 3 4 5 5 5 5 5 5 5 4 3 3 2 1 0 0 0
5 3 1 1 1 0 0 0 0 0 0 0 0 0 0 0 0 0 0 0 0 0 1 2 3 2 1 1 2 2 2 2 2 3 4 3 2 2 1 0 0 0 0
1 1 0 0 0 0 0 0 1 1 1 1 0 0 0 0 0 0 0 0 0 0 0 1 1 1 0 0 0 0 0 0 1 3 3 2 1 1 0 0 0 0 0
0 0 0 0 0 0 0 0 1 2 2 1 1 1 1 0 0 0 0 0 0 0 0 0 0 0 0 0 0 0 0 0 1 2 2 1 0 0 0 0 0 0 0
0 0 0 0 0 0 0 0 0 1 1 1 1 2 1 1 0 0 0 0 0 0 0 0 0 0 0 0 0 0 0 0 1 1 1 0 0 0 0 0 0 0 0
0 0 0 0 0 0 0 0 0 0 0 0 1 1 1 1 1 1 1 1 0 0 0 0 0 0 0 0 0 0 0 0 0 0 0 0 0 0 0 0 0 0 0
Wind_Speed
8 7 6 6 6 5 4 3 3 3 3 3 4 4 4 5 5 4 5 4 4 4 4 4 4 4 3 3 3 3 3 3 3 3 2 2 2 2 2 3 3 4 5
7 6 6 5 5 5 5 4 3 3 3 3 3 4 4 5 4 5 5 5 5 5 4 3 4 4 4 3 3 4 3 3 3 4 3 2 3 3 3 4 3 4 3
7 7 6 6 5 5 5 4 4 3 3 3 3 3 4 4 4 4 4 4 3 3 3 3 3 3 3 3 3 4 3 4 3 3 4 2 2 2 2 3 3 1 3
6 6 6 6 5 5 4 4 4 4 4 3 3 4 3 3 3 2 2 3 3 3 3 3 2 3 3 4 4 4 4 3 3 3 3 3 2 2 2 2 2 2 3
3 4 5 5 5 4 4 4 4 4 5 4 4 4 3 3 2 2 3 4 3 3 3 2 3 3 3 3 3 2 3 3 3 3 3 3 2 1 2 2 3 2 2
2 3 3 4 4 4 4 4 4 4 4 4 3 3 3 3 2 2 3 3 3 3 3 3 4 4 4 5 5 4 4 4 4 3 3 3 3 3 2 2 2 2 2
1 2 2 3 3 3 4 3 3 3 2 2 2 2 2 1 1 1 2 2 2 3 3 3 3 3 2 2 3 4 4 5 5 4 4 4 4 3 3 3 2 2 3
2 2 2 2 2 2 3 3 2 2 2 2 2 2 2 2 2 2 2 3 3 3 3 3 3 2 2 2 3 3 3 3 4 4 4 4 3 2 3 3 3 2 3
1 1 2 2 2 2 2 3 3 3 3 3 3 2 2 2 3 3 2 2 2 3 3 3 2 2 2 2 3 3 3 3 4 3 3 4 3 3 3 2 2 2 3
1 1 1 2 2 2 2 2 2 2 3 3 2 3 3 3 4 5 4 2 3 2 2 2 1 1 1 1 2 3 3 3 3 3 2 3 3 3 4 4 3 3 3
0 0 1 1 2 2 2 2 2 2 2 2 2 2 3 3 5 6 6 3 2 2 2 2 1 2 1 1 2 3 4 3 3 3 2 2 1 1 2 2 3 3 3
0 1 1 1 1 2 2 2 2 2 2 3 3 3 2 3 4 6 7 5 3 3 2 1 1 1 2 3 3 4 4 3 3 2 2 2 1 1 2 2 2 2 3
1 0 1 1 1 1 1 2 2 1 2 2 2 2 2 2 2 4 5 4 3 2 1 1 1 2 3 3 5 5 4 3 2 2 2 2 2 2 1 1 2 2 3
0 0 1 1 1 1 1 1 1 1 1 1 1 1 1 1 2 1 1 1 1 1 0 0 1 3 3 3 3 3 3 2 2 2 2 2 1 1 1 1 2 2 2
0 1 1 1 2 1 1 1 0 1 0 1 1 0 1 1 2 3 2 1 0 1 0 1 1 1 1 1 1 1 1 1 1 1 1 1 1 1 2 2 2 2 2
1 1 1 1 1 2 2 2 5 3 3 3 2 1 2 3 4 4 3 3 1 1 0 2 2 1 1 1 1 1 1 1 1 1 1 2 2 2 2 2 1 2 2
1 1 1 1 1 1 1 2 2 2 3 2 1 1 2 3 3 2 2 1 1 1 1 2 2 1 1 1 1 1 1 1 1 2 2 2 2 2 2 2 2 2 3
2 2 2 2 1 1 1 1 1 2 2 1 1 1 3 3 3 2 2 1 1 2 3 2 1 1 1 1 1 1 1 1 1 2 2 2 2 3 3 3 3 3 3
2 2 1 1 1 1 1 0 0 1 1 1 1 1 2 2 2 2 2 2 2 2 1 1 1 1 1 0 1 1 1 1 1 1 2 2 2 3 3 3 3 4 4
1 2 2 1 0 0 0 0 1 1 0 0 1 1 2 1 1 2 3 3 2 2 1 1 1 1 1 1 1 1 1 1 1 1 2 2 2 2 3 4 3 3 3
1 1 2 1 1 1 1 1 1 1 0 0 1 1 2 2 2 2 2 2 2 2 2 1 1 1 1 1 1 1 2 2 1 2 2 2 3 3 3 3 3 4 3
1 1 1 1 1 0 0 1 1 1 1 1 2 2 3 2 2 1 1 0 1 1 1 1 2 2 1 1 1 1 2 2 1 1 2 3 3 3 4 3 3 3 3
1 1 2 1 1 1 1 1 1 0 1 1 0 0 1 0 1 0 0 0 0 1 0 0 1 1 1 1 1 1 2 2 2 2 3 3 3 4 4 3 4 4 3
1 1 1 1 1 0 0 0 1 1 1 1 1 1 1 0 0 1 1 1 1 1 1 1 1 2 2 1 1 2 2 3 3 3 4 4 4 4 3 3 3 4 3
1 1 1 1 1 1 1 2 2 1 2 1 1 1 1 0 0 1 1 2 2 1 1 1 0 0 1 2 2 2 2 3 3 4 4 4 4 4 4 4 4 4 3
1 2 2 1 1 1 1 1 1 1 1 1 1 1 1 1 1 2 2 2 2 2 2 1 2 2 2 1 2 2 2 2 3 4 3 3 4 3 4 4 5 4 3
Wind_Direction
180 184 189 186 192 200 206 208 201 211 203 190 192 193 201 204 202 208 221 220 219 226 230 228 230 239 251 256 254 252 243 227 240 259 255 225 218 220 193 207 191 185 197
173 176 185 184 186 195 201 203 203 201 204 191 191 201 214 214 205 210 221 221 221 222 224 229 236 241 245 257 262 261 253 233 227 244 251 235 219 210 202 217 218 207 205
174 178 183 191 191 192 194 190 197 202 201 199 193 207 220 225 215 212 214 225 224 219 216 224 238 244 247 253 252 260 263 257 235 235 245 243 229 220 202 223 230 231 242
173 180 183 189 192 192 193 192 192 199 201 203 205 206 213 222 221 216 214 226 229 225 220 221 239 245 244 245 244 252 261 268 261 255 252 252 239 222 192 208 230 228 245
164 180 183 183 187 193 196 196 194 197 207 207 213 211 202 204 216 223 226 226 227 229 222 209 225 232 228 236 248 246 254 261 257 251 246 253 249 220 217 223 232 232 240
163 164 161 179 186 190 194 197 202 201 205 205 206 205 214 217 190 204 222 229 231 230 231 223 228 228 225 219 231 239 239 240 252 252 242 235 235 222 223 241 243 241 249
143 149 157 178 188 193 202 196 204 203 193 199 197 200 198 200 206 199 227 224 231 237 238 244 249 254 245 241 230 228 241 243 235 243 248 243 240 225 217 234 240 249 254
153 154 161 181 185 190 195 194 187 179 179 195 207 190 188 207 191 192 236 237 240 237 235 232 232 251 273 277 269 249 246 254 248 237 245 249 242 225 220 230 237 243 254
172 157 175 187 195 191 187 183 181 186 187 198 193 198 201 181 175 175 191 243 234 242 245 247 236 228 262 271 266 262 263 273 289 284 261 248 231 219 215 234 244 246 263
234 210 220 207 194 191 191 190 196 199 204 207 190 197 193 187 179 181 196 238 239 238 230 218 199 212 247 287 263 265 264 269 282 286 276 261 233 222 212 216 233 245 260
289 248 225 222 198 186 180 181 181 200 196 203 200 212 210 194 177 184 195 223 244 245 239 220 163 149 180 244 250 254 258 273 278 264 253 241 225 220 212 216 231 239 247
312 193 187 207 242 189 160 177 186 199 208 209 213 223 220 193 184 194 199 218 261 267 255 151 136 188 263 268 252 245 260 271 264 259 253 249 244 239 236 225 229 231 237
340 330 217 220 183 132 168 181 185 193 229 224 217 219 201 169 160 180 193 212 242 268 302 114 180 233 260 261 244 244 242 244 244 250 253 246 232 232 235 234 242 248 249
228 270 206 181 182 154 193 205 204 190 221 234 222 218 171 114 97 110 161 186 208 216 306 350 233 243 253 254 253 235 231 233 230 243 251 256 247 226 230 238 249 252 259
253 258 244 212 201 171 141 81 81 58 198 213 247 186 160 158 154 154 153 159 126 76 17 268 259 249 238 239 236 246 254 260 262 265 267 266 265 253 253 247 243 252 265
248 258 256 247 216 177 154 116 64 71 89 103 97 84 85 114 147 148 143 141 158 152 180 247 257 265 267 267 276 275 263 287 296 293 292 290 281 270 269 271 269 267 270
245 262 273 278 257 208 169 159 147 96 83 69 77 125 154 148 141 141 134 107 231 177 216 247 243 246 270 289 311 327 317 318 320 318 317 310 305 300 298 294 289 282 276
238 238 229 224 237 220 200 195 178 172 151 132 135 173 187 191 189 181 144 94 236 206 224 235 243 264 278 306 318 316 317 313 306 301 306 310 312 305 299 296 293 286 280
241 248 238 238 237 210 198 181 151 131 137 142 146 142 187 201 210 223 167 215 245 254 262 273 274 285 316 332 321 317 308 299 304 300 300 302 301 298 294 289 287 290 281
211 192 218 242 287 45 113 170 139 102 45 50 90 97 121 161 191 198 196 212 235 250 255 253 261 274 285 289 292 290 288 287 285 284 294 294 293 291 290 290 289 286 275
199 164 165 174 209 211 219 212 162 138 181 163 113 121 143 198 232 230 212 205 226 242 242 249 249 242 241 247 263 275 285 288 291 297 301 298 299 294 289 285 285 284 285
185 176 184 202 186 147 223 231 205 168 204 166 136 151 180 225 248 259 258 189 232 254 271 272 280 282 274 261 273 276 280 281 277 277 284 284 281 283 287 285 284 287 290
223 191 167 162 169 181 227 254 263 140 109 104 88 108 136 241 290 312 1 117 338 301 297 293 296 320 355 8 1 354 327 313 298 284 276 274 276 277 280 282 285 291 297
174 151 138 134 154 197 132 77 53 73 104 100 96 85 63 51 9 26 6 2 0 346 16 43 37 12 9 25 33 19 349 332 315 296 286 279 277 278 284 288 288 287 291
113 97 89 93 84 81 78 74 70 58 58 61 61 48 11 356 49 70 46 32 22 13 10 10 86 49 8 24 24 358 346 347 331 324 305 288 285 289 290 291 292 296 297
68 78 87 98 106 105 96 80 67 57 57 71 78 60 30 9 30 67 59 44 16 6 3 15 43 40 29 39 31 17 11 353 340 330 313 301 298 293 291 290 292 292 299